WZZ388 LYBE-EDJA

Flight info

Callsign WZZ388
Flight time 1h 20m
Altitude 36000
Route LYBE/12L N0444F360 TUVA4C TUVAR DCT BEDOX DCT DIPSA DCT ERKIR L608 KPT KPT1C EDJA/06
Aircraft A321/M-SDE2E3FGIJ1RWYZ/L

Departure

Time 2026-05-08 14:14
Airport Belgrade Nikola Tesla Airport (LYBE)

Arrival

Time 2026-05-08 15:34
Airport Memmingen Allgau Airport (EDJA)
Time Latitude Longitude Altitude Speed Heading
2026-05-08 13:22 44.81853 20.29207 342 ft 0 kts 302°
2026-05-08 14:03 44.81848 20.29219 341 ft 2 kts 302°
2026-05-08 14:03 44.81840 20.29237 341 ft 2 kts 302°
2026-05-08 14:03 44.81832 20.29255 341 ft 2 kts 302°
2026-05-08 14:03 44.81822 20.29270 341 ft 2 kts 340°
2026-05-08 14:04 44.81807 20.29271 341 ft 2 kts 20°
2026-05-08 14:04 44.81801 20.29267 341 ft 1 kts 37°
2026-05-08 14:04 44.81797 20.29264 341 ft 0 kts 32°
2026-05-08 14:08 44.81798 20.29264 341 ft 0 kts 32°
2026-05-08 14:08 44.81813 20.29277 341 ft 6 kts 32°
2026-05-08 14:09 44.81880 20.29335 341 ft 14 kts 31°
2026-05-08 14:09 44.81975 20.29418 341 ft 15 kts 32°
2026-05-08 14:09 44.82055 20.29488 341 ft 12 kts 31°
2026-05-08 14:09 44.82129 20.29534 341 ft 8 kts 348°
2026-05-08 14:10 44.82177 20.29453 341 ft 14 kts 302°
2026-05-08 14:10 44.82248 20.29288 342 ft 23 kts 302°
2026-05-08 14:10 44.82332 20.29102 341 ft 20 kts 301°
2026-05-08 14:10 44.82383 20.28985 341 ft 13 kts 301°
2026-05-08 14:11 44.82415 20.28912 341 ft 3 kts 303°
2026-05-08 14:11 44.82449 20.28870 341 ft 10 kts 330°
2026-05-08 14:11 44.82527 20.28873 341 ft 9 kts 27°
2026-05-08 14:11 44.82552 20.28896 341 ft 0 kts 38°
2026-05-08 14:12 44.82555 20.28899 341 ft 1 kts 39°
2026-05-08 14:12 44.82587 20.28948 341 ft 11 kts 56°
2026-05-08 14:12 44.82622 20.29090 341 ft 17 kts 86°
2026-05-08 14:13 44.82566 20.29293 341 ft 36 kts 121°
2026-05-08 14:13 44.82316 20.29858 342 ft 101 kts 121°
2026-05-08 14:13 44.81833 20.30947 342 ft 158 kts 122°
2026-05-08 14:13 44.81191 20.32385 647 ft 178 kts 121°
2026-05-08 14:14 44.80515 20.33841 1163 ft 183 kts 123°
2026-05-08 14:14 44.79546 20.34994 1703 ft 190 kts 159°
2026-05-08 14:14 44.78243 20.35308 2275 ft 191 kts 174°
2026-05-08 14:14 44.76892 20.35416 2657 ft 198 kts 177°
2026-05-08 14:15 44.75491 20.35446 2878 ft 210 kts 178°
2026-05-08 14:15 44.74006 20.35520 3218 ft 215 kts 176°
2026-05-08 14:15 44.72501 20.35651 3586 ft 220 kts 174°
2026-05-08 14:15 44.70937 20.35779 3958 ft 226 kts 181°
2026-05-08 14:16 44.69483 20.35035 4295 ft 232 kts 221°
2026-05-08 14:16 44.68675 20.33093 4629 ft 236 kts 263°
2026-05-08 14:16 44.68928 20.30825 4952 ft 241 kts 301°
2026-05-08 14:16 44.69883 20.28869 5363 ft 250 kts 305°
2026-05-08 14:17 44.70813 20.26760 5748 ft 262 kts 301°
2026-05-08 14:17 44.71709 20.24481 6211 ft 273 kts 299°
2026-05-08 14:17 44.72593 20.22122 6833 ft 276 kts 298°
2026-05-08 14:17 44.73473 20.19712 7476 ft 280 kts 298°
2026-05-08 14:18 44.74362 20.17260 8125 ft 283 kts 297°
2026-05-08 14:18 44.75249 20.14796 8779 ft 286 kts 297°
2026-05-08 14:18 44.76154 20.12270 9387 ft 289 kts 297°
2026-05-08 14:18 44.77057 20.09744 9996 ft 292 kts 296°
2026-05-08 14:19 44.77964 20.07190 10545 ft 297 kts 296°
2026-05-08 14:19 44.78889 20.04587 11099 ft 300 kts 296°
2026-05-08 14:19 44.79821 20.01963 11685 ft 302 kts 296°
2026-05-08 14:19 44.80765 19.99299 12221 ft 306 kts 296°
2026-05-08 14:20 44.81717 19.96615 12753 ft 309 kts 296°
2026-05-08 14:20 44.82664 19.93941 13325 ft 310 kts 296°
2026-05-08 14:20 44.83629 19.91213 13885 ft 313 kts 296°
2026-05-08 14:20 44.84605 19.88452 14369 ft 317 kts 296°
2026-05-08 14:21 44.85585 19.85681 14881 ft 319 kts 296°
2026-05-08 14:21 44.86570 19.82891 15431 ft 320 kts 296°
2026-05-08 14:21 44.87567 19.80063 15950 ft 323 kts 295°
2026-05-08 14:21 44.88564 19.77228 16434 ft 326 kts 295°
2026-05-08 14:22 44.89564 19.74382 16921 ft 328 kts 295°
2026-05-08 14:22 44.90584 19.71480 17449 ft 330 kts 295°
2026-05-08 14:22 44.91596 19.68591 17912 ft 332 kts 295°
2026-05-08 14:22 44.92618 19.65667 18352 ft 336 kts 295°
2026-05-08 14:23 44.93645 19.62734 18854 ft 337 kts 295°
2026-05-08 14:23 44.94676 19.59783 19340 ft 338 kts 295°
2026-05-08 14:23 44.95378 19.57770 19659 ft 339 kts 295°
2026-05-08 14:23 44.96755 19.53824 20270 ft 340 kts 295°
2026-05-08 14:24 44.97806 19.50807 20717 ft 341 kts 295°
2026-05-08 14:24 44.98843 19.47828 21159 ft 343 kts 295°
2026-05-08 14:24 44.99902 19.44782 21593 ft 345 kts 295°
2026-05-08 14:24 45.00954 19.41752 22019 ft 346 kts 295°
2026-05-08 14:25 45.02022 19.38677 22457 ft 347 kts 295°
2026-05-08 14:25 45.03083 19.35619 22891 ft 348 kts 295°
2026-05-08 14:25 45.04139 19.32568 23328 ft 349 kts 294°
2026-05-08 14:25 45.05198 19.29499 23746 ft 349 kts 294°
2026-05-08 14:26 45.06271 19.26390 24123 ft 352 kts 294°
2026-05-08 14:26 45.07340 19.23288 24487 ft 354 kts 294°
2026-05-08 14:26 45.08420 19.20150 24836 ft 356 kts 294°
2026-05-08 14:26 45.09493 19.17031 25186 ft 358 kts 294°
2026-05-08 14:27 45.10588 19.13844 25544 ft 359 kts 294°
2026-05-08 14:27 45.11673 19.10682 25889 ft 360 kts 294°
2026-05-08 14:27 45.12765 19.07499 26220 ft 362 kts 294°
2026-05-08 14:27 45.13927 19.04295 26403 ft 369 kts 295°
2026-05-08 14:28 45.15140 19.01053 26541 ft 376 kts 295°
2026-05-08 14:28 45.16366 18.97774 26685 ft 382 kts 295°
2026-05-08 14:28 45.17618 18.94420 26825 ft 389 kts 295°
2026-05-08 14:28 45.18873 18.91045 26962 ft 395 kts 295°
2026-05-08 14:29 45.20168 18.87554 27098 ft 402 kts 295°
2026-05-08 14:29 45.21464 18.84049 27230 ft 408 kts 295°
2026-05-08 14:29 45.22793 18.80448 27376 ft 413 kts 295°
2026-05-08 14:29 45.24121 18.76848 27626 ft 416 kts 295°
2026-05-08 14:30 45.25463 18.73203 27916 ft 417 kts 295°
2026-05-08 14:30 45.26794 18.69581 28213 ft 418 kts 295°
2026-05-08 14:30 45.28134 18.65933 28531 ft 419 kts 295°
2026-05-08 14:30 45.29477 18.62260 28793 ft 420 kts 295°
2026-05-08 14:31 45.30821 18.58582 28998 ft 423 kts 295°
2026-05-08 14:31 45.32174 18.54876 29249 ft 424 kts 295°
2026-05-08 14:31 45.33525 18.51174 29523 ft 425 kts 295°
2026-05-08 14:32 45.36243 18.43706 30005 ft 428 kts 295°
2026-05-08 14:32 45.37598 18.39971 30248 ft 429 kts 295°
2026-05-08 14:32 45.38975 18.36174 30467 ft 431 kts 295°
2026-05-08 14:32 45.40343 18.32402 30693 ft 432 kts 294°
2026-05-08 14:33 45.41709 18.28630 30940 ft 433 kts 294°
2026-05-08 14:33 45.43092 18.24802 31207 ft 433 kts 294°
2026-05-08 14:33 45.44457 18.21017 31502 ft 432 kts 293°
2026-05-08 14:33 45.45827 18.17217 31769 ft 432 kts 293°
2026-05-08 14:34 45.47183 18.13445 32014 ft 432 kts 293°
2026-05-08 14:34 45.48544 18.09657 32269 ft 432 kts 293°
2026-05-08 14:34 45.49921 18.05814 32584 ft 430 kts 293°
2026-05-08 14:34 45.51273 18.02037 32881 ft 429 kts 292°
2026-05-08 14:35 45.52618 17.98280 33148 ft 428 kts 292°
2026-05-08 14:35 45.53965 17.94509 33406 ft 427 kts 292°
2026-05-08 14:35 45.55307 17.90741 33653 ft 427 kts 292°
2026-05-08 14:35 45.56633 17.87017 33885 ft 427 kts 292°
2026-05-08 14:36 45.57973 17.83251 34114 ft 426 kts 292°
2026-05-08 14:36 45.59319 17.79454 34339 ft 426 kts 292°
2026-05-08 14:36 45.60643 17.75719 34489 ft 427 kts 292°
2026-05-08 14:36 45.61979 17.71940 34636 ft 428 kts 292°
2026-05-08 14:37 45.63324 17.68134 34797 ft 428 kts 292°
2026-05-08 14:37 45.64655 17.64359 34934 ft 428 kts 292°
2026-05-08 14:37 45.65986 17.60584 35086 ft 429 kts 292°
2026-05-08 14:37 45.67323 17.56790 35241 ft 428 kts 292°
2026-05-08 14:38 45.68655 17.53001 35378 ft 429 kts 292°
2026-05-08 14:38 45.69998 17.49175 35488 ft 429 kts 292°
2026-05-08 14:38 45.71333 17.45364 35600 ft 430 kts 292°
2026-05-08 14:38 45.72671 17.41543 35739 ft 430 kts 292°
2026-05-08 14:39 45.74001 17.37743 35897 ft 429 kts 292°
2026-05-08 14:39 45.75330 17.33936 35983 ft 429 kts 292°
2026-05-08 14:39 45.77983 17.26314 36003 ft 430 kts 292°
2026-05-08 14:40 45.80633 17.18692 36005 ft 429 kts 292°
2026-05-08 14:40 45.83280 17.11053 35997 ft 429 kts 291°
2026-05-08 14:41 45.85925 17.03394 35988 ft 429 kts 291°
2026-05-08 14:41 45.88554 16.95756 35981 ft 429 kts 291°
2026-05-08 14:42 45.91179 16.88110 36001 ft 430 kts 291°
2026-05-08 14:42 45.93818 16.80401 36000 ft 430 kts 292°
2026-05-08 14:43 45.96432 16.72744 35995 ft 429 kts 292°
2026-05-08 14:43 45.99056 16.65038 35990 ft 429 kts 292°
2026-05-08 14:44 46.01646 16.57407 35995 ft 428 kts 292°
2026-05-08 14:44 46.04242 16.49734 36001 ft 428 kts 292°
2026-05-08 14:45 46.06832 16.42062 35984 ft 428 kts 291°
2026-05-08 14:45 46.09421 16.34362 35991 ft 427 kts 291°
2026-05-08 14:46 46.11992 16.26694 36014 ft 426 kts 291°
2026-05-08 14:46 46.14568 16.18989 35993 ft 426 kts 291°
2026-05-08 14:47 46.17126 16.11318 35992 ft 427 kts 291°
2026-05-08 14:47 46.19685 16.03614 36011 ft 426 kts 291°
2026-05-08 14:48 46.22231 15.95928 36011 ft 426 kts 291°
2026-05-08 14:48 46.24770 15.88235 36025 ft 425 kts 291°
2026-05-08 14:49 46.27390 15.80648 36038 ft 427 kts 294°
2026-05-08 14:49 46.30273 15.73157 36025 ft 427 kts 295°
2026-05-08 14:50 46.33162 15.65663 36041 ft 428 kts 295°
2026-05-08 14:50 46.36052 15.58136 36052 ft 428 kts 294°
2026-05-08 14:51 46.38924 15.50626 36042 ft 428 kts 295°
2026-05-08 14:51 46.41777 15.43151 36050 ft 426 kts 294°
2026-05-08 14:52 46.46076 15.31836 36050 ft 426 kts 294°
2026-05-08 14:53 46.48908 15.24357 36057 ft 425 kts 294°
2026-05-08 14:53 46.51743 15.16844 36055 ft 426 kts 294°
2026-05-08 14:54 46.54590 15.09283 36055 ft 427 kts 293°
2026-05-08 14:54 46.57417 15.01743 36055 ft 426 kts 294°
2026-05-08 14:55 46.59772 14.95447 36055 ft 427 kts 294°
2026-05-08 14:56 46.65360 14.79243 36062 ft 424 kts 291°
2026-05-08 14:56 46.67932 14.71557 36062 ft 423 kts 291°
2026-05-08 14:57 46.70494 14.63883 36061 ft 423 kts 291°
2026-05-08 14:57 46.73064 14.56158 36047 ft 423 kts 291°
2026-05-08 14:58 46.75628 14.48434 36044 ft 423 kts 291°
2026-05-08 14:58 46.78180 14.40718 36030 ft 423 kts 291°
2026-05-08 14:59 46.80716 14.33036 36040 ft 423 kts 290°
2026-05-08 14:59 46.84528 14.21427 36053 ft 423 kts 291°
2026-05-08 15:00 46.87068 14.13672 36068 ft 424 kts 291°
2026-05-08 15:00 46.89595 14.05937 36085 ft 423 kts 290°
2026-05-08 15:01 46.92119 13.98178 36074 ft 423 kts 291°
2026-05-08 15:01 46.94628 13.90448 36083 ft 422 kts 291°
2026-05-08 15:02 46.97140 13.82686 36084 ft 423 kts 290°
2026-05-08 15:02 46.99654 13.74895 36083 ft 423 kts 290°
2026-05-08 15:03 47.02141 13.67162 36070 ft 423 kts 290°
2026-05-08 15:03 47.04646 13.59340 36062 ft 424 kts 290°
2026-05-08 15:04 47.07139 13.51541 36063 ft 423 kts 290°
2026-05-08 15:04 47.09638 13.43698 36048 ft 423 kts 290°
2026-05-08 15:05 47.12122 13.35872 36062 ft 424 kts 290°
2026-05-08 15:05 47.14602 13.28044 36065 ft 423 kts 290°
2026-05-08 15:06 47.17074 13.20215 36065 ft 424 kts 290°
2026-05-08 15:06 47.19532 13.12403 36069 ft 424 kts 290°
2026-05-08 15:07 47.22003 13.04523 36063 ft 425 kts 290°
2026-05-08 15:07 47.24480 12.96600 36097 ft 426 kts 290°
2026-05-08 15:08 47.26517 12.90075 36068 ft 425 kts 290°
2026-05-08 15:08 47.29384 12.80853 36080 ft 426 kts 290°
2026-05-08 15:09 47.31842 12.72916 36061 ft 426 kts 290°
2026-05-08 15:09 47.34288 12.65003 36065 ft 425 kts 290°
2026-05-08 15:10 47.36724 12.57086 36057 ft 425 kts 290°
2026-05-08 15:10 47.39147 12.49190 36027 ft 423 kts 290°
2026-05-08 15:11 47.40358 12.45237 35693 ft 425 kts 289°
2026-05-08 15:11 47.41570 12.41281 35154 ft 431 kts 289°
2026-05-08 15:11 47.42799 12.37251 34371 ft 435 kts 289°
2026-05-08 15:11 47.44047 12.33140 33512 ft 437 kts 288°
2026-05-08 15:12 47.45270 12.29106 32696 ft 438 kts 289°
2026-05-08 15:12 47.46509 12.25019 31788 ft 441 kts 289°
2026-05-08 15:12 47.47757 12.20896 30872 ft 443 kts 289°
2026-05-08 15:12 47.49022 12.16715 30164 ft 441 kts 289°
2026-05-08 15:13 47.50250 12.12654 29658 ft 435 kts 289°
2026-05-08 15:13 47.51481 12.08574 29112 ft 430 kts 289°
2026-05-08 15:13 47.52658 12.04552 28554 ft 425 kts 288°
2026-05-08 15:13 47.53639 12.00495 27950 ft 420 kts 284°
2026-05-08 15:14 47.54409 11.96382 27333 ft 415 kts 280°
2026-05-08 15:14 47.55022 11.92226 26687 ft 413 kts 279°
2026-05-08 15:14 47.55597 11.88140 26085 ft 410 kts 279°
2026-05-08 15:14 47.56175 11.83990 25541 ft 406 kts 279°
2026-05-08 15:15 47.56732 11.79979 25087 ft 401 kts 279°
2026-05-08 15:15 47.57294 11.75930 24626 ft 395 kts 280°
2026-05-08 15:15 47.57835 11.72024 24145 ft 390 kts 280°
2026-05-08 15:15 47.58379 11.68101 23677 ft 385 kts 280°
2026-05-08 15:16 47.58912 11.64244 23258 ft 380 kts 280°
2026-05-08 15:16 47.59428 11.60499 22818 ft 375 kts 281°
2026-05-08 15:16 47.59945 11.56733 22372 ft 371 kts 281°
2026-05-08 15:16 47.60459 11.52988 21920 ft 368 kts 281°
2026-05-08 15:17 47.60959 11.49328 21502 ft 365 kts 281°
2026-05-08 15:17 47.61457 11.45669 21019 ft 362 kts 281°
2026-05-08 15:17 47.61956 11.42013 20595 ft 363 kts 281°
2026-05-08 15:17 47.62445 11.38353 20102 ft 362 kts 280°
2026-05-08 15:18 47.62894 11.34726 19552 ft 360 kts 279°
2026-05-08 15:18 47.63333 11.31101 19067 ft 358 kts 279°
2026-05-08 15:18 47.63768 11.27497 18606 ft 357 kts 279°
2026-05-08 15:18 47.64206 11.23866 18055 ft 356 kts 279°
2026-05-08 15:19 47.64635 11.20301 17565 ft 352 kts 279°
2026-05-08 15:19 47.65058 11.16777 17084 ft 349 kts 279°
2026-05-08 15:19 47.65482 11.13257 16590 ft 346 kts 279°
2026-05-08 15:19 47.65898 11.09775 16012 ft 344 kts 279°
2026-05-08 15:20 47.66315 11.06283 15488 ft 342 kts 279°
2026-05-08 15:20 47.66725 11.02850 15034 ft 339 kts 279°
2026-05-08 15:20 47.67135 10.99413 14427 ft 336 kts 279°
2026-05-08 15:20 47.67538 10.96015 13788 ft 336 kts 279°
2026-05-08 15:21 47.67939 10.92621 13234 ft 335 kts 279°
2026-05-08 15:21 47.68335 10.89256 12675 ft 333 kts 279°
2026-05-08 15:21 47.68733 10.85872 12105 ft 329 kts 279°
2026-05-08 15:21 47.69119 10.82583 11565 ft 324 kts 279°
2026-05-08 15:22 47.69501 10.79311 10975 ft 322 kts 279°
2026-05-08 15:22 47.69881 10.76044 10367 ft 323 kts 279°
2026-05-08 15:22 47.70264 10.72764 9829 ft 323 kts 278°
2026-05-08 15:22 47.70640 10.69519 9265 ft 317 kts 279°
2026-05-08 15:23 47.71006 10.66357 8701 ft 312 kts 279°
2026-05-08 15:23 47.71367 10.63214 8299 ft 310 kts 279°
2026-05-08 15:23 47.71726 10.60099 7962 ft 306 kts 279°
2026-05-08 15:23 47.72083 10.56984 7685 ft 302 kts 279°
2026-05-08 15:24 47.72431 10.53945 7377 ft 298 kts 280°
2026-05-08 15:24 47.72774 10.50935 7108 ft 294 kts 280°
2026-05-08 15:24 47.73111 10.47979 6882 ft 289 kts 280°
2026-05-08 15:24 47.73441 10.45086 6617 ft 284 kts 280°
2026-05-08 15:25 47.73768 10.42210 6361 ft 280 kts 280°
2026-05-08 15:25 47.74085 10.39397 6131 ft 278 kts 280°
2026-05-08 15:25 47.74423 10.36561 5889 ft 277 kts 283°
2026-05-08 15:25 47.74922 10.33802 5644 ft 276 kts 289°
2026-05-08 15:26 47.75583 10.31139 5395 ft 275 kts 292°
2026-05-08 15:26 47.76279 10.28507 5143 ft 274 kts 292°
2026-05-08 15:26 47.76968 10.25920 4997 ft 268 kts 292°
2026-05-08 15:26 47.77637 10.23392 4977 ft 254 kts 292°
2026-05-08 15:27 47.78263 10.21018 4988 ft 243 kts 292°
2026-05-08 15:27 47.78880 10.18682 4974 ft 241 kts 293°
2026-05-08 15:27 47.79511 10.16380 4979 ft 238 kts 294°
2026-05-08 15:27 47.80121 10.14178 4954 ft 226 kts 294°
2026-05-08 15:28 47.80714 10.12033 4787 ft 220 kts 294°
2026-05-08 15:28 47.81286 10.09960 4611 ft 215 kts 294°
2026-05-08 15:28 47.81841 10.07935 4427 ft 210 kts 294°
2026-05-08 15:28 47.82578 10.06126 4233 ft 202 kts 318°
2026-05-08 15:29 47.83647 10.04825 4059 ft 194 kts 325°
2026-05-08 15:29 47.84682 10.03602 4032 ft 189 kts 324°
2026-05-08 15:29 47.85723 10.02374 4058 ft 191 kts 329°
2026-05-08 15:29 47.86951 10.01819 3992 ft 184 kts
2026-05-08 15:30 47.88140 10.02451 4007 ft 182 kts 30°
2026-05-08 15:30 47.89217 10.03430 4004 ft 182 kts 33°
2026-05-08 15:30 47.90222 10.04437 3977 ft 168 kts 34°
2026-05-08 15:30 47.91137 10.05476 3996 ft 161 kts 45°
2026-05-08 15:31 47.91870 10.06729 3992 ft 160 kts 52°
2026-05-08 15:31 47.92505 10.08052 3979 ft 151 kts 54°
2026-05-08 15:31 47.93068 10.09320 3965 ft 147 kts 56°
2026-05-08 15:31 47.93605 10.10620 3829 ft 146 kts 58°
2026-05-08 15:32 47.94127 10.11930 3643 ft 144 kts 59°
2026-05-08 15:32 47.94629 10.13203 3463 ft 143 kts 59°
2026-05-08 15:32 47.95130 10.14482 3283 ft 143 kts 57°
2026-05-08 15:32 47.95639 10.15770 3098 ft 143 kts 57°
2026-05-08 15:33 47.96141 10.17035 2917 ft 142 kts 59°
2026-05-08 15:33 47.96649 10.18323 2726 ft 143 kts 56°
2026-05-08 15:33 47.97156 10.19601 2545 ft 144 kts 59°
2026-05-08 15:33 47.97670 10.20871 2358 ft 144 kts 57°
2026-05-08 15:34 47.98178 10.22153 2159 ft 144 kts 59°
2026-05-08 15:34 47.98653 10.23370 2069 ft 116 kts 58°
2026-05-08 15:34 47.98923 10.24054 2061 ft 52 kts 59°
2026-05-08 15:34 47.99080 10.24455 2059 ft 36 kts 56°
2026-05-08 15:35 47.99179 10.24696 2055 ft 24 kts 60°
2026-05-08 15:35 47.99262 10.24910 2053 ft 23 kts 59°
2026-05-08 15:35 47.99300 10.25042 2053 ft 7 kts 56°
2026-05-08 15:35 47.99314 10.25039 2053 ft 1 kts 300°
2026-05-08 15:36 47.99300 10.24990 2053 ft 13 kts 234°
2026-05-08 15:36 47.99218 10.24798 2053 ft 30 kts 239°
2026-05-08 15:36 47.99088 10.24472 2058 ft 40 kts 239°
2026-05-08 15:36 47.98945 10.24110 2060 ft 39 kts 239°
2026-05-08 15:37 47.98851 10.23878 2062 ft 14 kts 239°
2026-05-08 15:37 47.98848 10.23763 2063 ft 11 kts 315°
2026-05-08 15:37 47.98904 10.23692 2063 ft 8 kts 298°
2026-05-08 15:37 47.98907 10.23619 2064 ft 6 kts 255°
2026-05-08 15:38 47.98884 10.23523 2066 ft 16 kts 250°
2026-05-08 15:38 47.98851 10.23380 2068 ft 5 kts 250°
2026-05-08 15:38 47.98844 10.23336 2069 ft 5 kts 279°
2026-05-08 15:38 47.98856 10.23314 2069 ft 3 kts 327°
2026-05-08 15:39 47.98880 10.23313 2068 ft 3 kts 35°
2026-05-08 15:39 47.98889 10.23330 2068 ft 0 kts 55°